Theta_e
317 311 311 308 299 295 292 295 299 299 299 303 307 307 308 308 306 298 326 333 333 338 341 343 344 346 345 345 345 346 346 347 348 347 345 343 340 338 339 339 341 340 339 340 337 336 336 336 336
312 311 309 301 295 290 290 295 298 300 304 309 307 308 308 308 321 320 327 332 337 339 342 343 344 346 345 344 344 344 345 346 348 347 344 343 338 338 338 339 341 340 340 340 337 337 335 337 337
311 307 304 296 290 290 290 294 299 300 306 303 307 310 311 312 321 324 330 332 336 339 342 343 344 346 342 342 342 342 344 345 347 345 343 341 337 336 337 339 339 339 340 339 339 336 336 335 338
308 306 300 295 293 294 294 297 299 301 302 303 308 306 314 322 323 327 331 332 335 339 342 343 344 345 342 343 340 340 340 343 345 343 341 337 336 336 336 339 338 338 337 340 338 337 337 337 336
303 301 294 291 293 295 295 298 299 299 300 303 305 305 313 323 327 329 330 332 334 338 340 344 343 343 343 342 340 340 340 341 343 342 339 336 336 335 335 337 337 334 336 338 339 337 338 336 335
300 299 292 290 292 295 298 299 299 299 300 302 306 310 315 322 327 328 331 331 336 337 339 343 337 339 341 341 341 341 342 341 342 341 336 335 335 334 334 335 334 332 338 339 338 336 335 335 334
298 295 292 291 291 295 298 299 298 298 299 301 310 306 311 321 327 329 330 332 335 338 339 342 342 338 335 338 338 339 340 340 340 340 338 336 336 335 334 335 334 332 334 337 335 335 334 333 333
298 296 292 291 291 293 297 299 298 299 299 306 310 302 307 321 327 328 329 331 334 336 338 340 340 340 340 339 332 333 336 337 337 336 333 331 332 332 331 330 334 332 334 336 335 333 333 332 332
299 293 290 292 292 294 296 297 297 299 299 301 307 306 311 324 327 327 326 328 331 333 336 338 339 338 338 338 332 330 331 332 331 330 326 325 330 329 328 327 331 333 334 334 333 331 329 329 328
296 292 293 294 294 294 296 296 297 297 297 299 301 305 316 324 326 325 324 324 327 329 332 335 337 337 337 336 334 335 332 334 332 330 328 326 326 326 326 325 327 329 327 331 330 328 324 321 325
295 293 294 294 295 296 296 295 297 296 295 299 299 302 316 321 323 324 325 326 327 330 331 333 334 337 336 336 334 334 332 331 330 328 326 324 322 325 326 328 328 328 322 326 326 324 321 320 321
293 294 294 297 296 296 295 296 295 296 298 298 299 306 317 319 321 323 324 325 327 329 331 332 333 334 336 336 334 333 331 329 327 326 325 322 321 322 324 325 326 325 325 324 322 319 318 318 318
293 293 295 296 295 295 296 294 295 295 297 297 299 310 317 321 322 323 325 326 329 329 331 332 333 333 335 335 335 333 331 329 327 325 324 322 320 321 322 323 324 323 321 320 317 317 316 316 315
293 294 294 295 294 295 293 292 294 294 295 295 299 304 313 318 320 320 322 323 326 330 331 332 332 333 333 334 334 333 333 331 327 325 324 322 321 320 321 321 321 321 320 316 316 315 315 315 313
293 291 291 292 293 293 293 289 292 293 293 294 295 298 305 313 317 320 324 324 325 328 331 332 332 332 332 333 333 333 333 331 328 326 324 322 321 319 319 320 319 320 318 315 314 312 311 310 310
289 288 286 289 292 292 290 286 289 293 292 293 294 294 295 299 312 317 321 323 323 325 326 330 331 331 331 331 332 332 332 332 330 327 325 323 321 320 319 318 318 317 316 314 310 309 309 308 307
286 283 283 285 292 291 289 287 291 293 293 293 294 294 294 294 296 300 313 319 322 323 325 326 330 330 330 331 331 331 331 331 331 330 326 323 322 320 319 318 317 316 315 313 310 307 307 305 304
283 283 283 282 288 290 288 289 291 293 293 293 293 293 293 294 296 297 298 307 316 319 322 325 327 329 330 331 330 330 330 330 330 330 328 325 322 321 320 320 318 316 314 312 310 308 305 305 304
285 283 283 285 290 289 288 288 291 292 292 292 292 292 292 293 295 295 296 297 302 312 317 321 323 327 329 328 327 327 326 328 329 329 329 327 325 322 320 320 317 315 314 312 311 307 302 300 300
286 284 284 286 289 288 286 288 290 290 291 291 290 291 291 291 292 294 295 295 297 301 310 315 320 324 327 329 329 329 329 329 329 329 329 329 326 324 322 321 319 316 315 313 310 307 300 302 299
284 285 284 284 285 285 283 284 285 288 289 290 290 290 292 292 293 294 296 296 297 296 296 305 313 319 324 328 325 320 323 322 327 327 328 328 328 327 324 323 321 317 317 314 312 308 305 302 297
284 287 287 286 283 281 284 278 283 285 287 289 290 291 292 293 295 295 295 296 297 298 299 298 302 311 317 323 324 324 324 323 326 327 328 328 329 328 326 325 323 320 317 316 313 311 309 309 299
285 288 286 284 283 282 282 280 282 283 285 288 290 292 293 294 294 295 296 297 297 298 299 301 304 307 311 317 322 322 323 325 324 323 326 327 327 328 328 326 324 322 319 318 315 311 309 309 307
289 286 284 283 281 277 281 279 280 282 285 288 290 292 293 294 294 295 296 297 297 297 298 300 301 301 309 314 316 318 319 319 317 316 317 322 325 326 326 325 325 324 322 319 318 315 311 310 309
285 283 278 277 275 275 279 278 281 284 287 290 290 291 292 293 294 294 295 295 296 296 296 298 298 298 300 303 308 311 314 315 315 315 314 313 313 315 320 320 320 322 323 321 319 315 312 309 308
284 283 278 273 272 275 279 278 282 286 288 290 291 292 292 292 293 293 294 294 295 295 296 297 297 297 297 298 300 301 303 307 309 310 312 312 312 314 316 317 318 318 317 317 317 316 312 312 309
285 282 284 278 268 274 278 280 285 288 289 290 291 291 292 292 293 293 294 294 294 294 294 295 296 296 296 297 298 298 299 300 301 302 305 306 307 307 308 308 311 315 315 316 316 314 312 310 309
285 287 281 278 270 270 275 277 280 285 287 289 290 290 291 292 293 293 294 294 294 294 294 295 294 294 294 295 296 297 297 298 299 299 300 301 302 302 303 303 304 305 308 311 312 312 312 310 309
284 283 282 282 279 273 271 277 283 288 288 288 289 290 290 292 292 293 293 294 294 294 294 294 294 294 293 294 294 294 295 296 296 297 297 298 299 299 299 300 300 301 302 303 305 307 308 308 309
285 284 284 279 276 276 277 279 288 289 289 290 290 290 291 292 292 292 292 293 293 293 293 293 293 293 292 292 292 292 292 292 292 293 294 295 295 296 296 297 297 298 299 300 300 301 303 303 303
Wind_Speed
3 5 2 5 5 5 1 3 0 2 1 0 4 4 3 2 3 2 1 8 12 12 11 10 10 10 11 10 9 9 9 12 16 17 18 18 15 14 14 14 14 13 15 17 18 18 18 18 19
3 3 5 3 6 3 3 2 4 3 2 5 4 2 2 1 2 4 9 6 16 13 9 9 11 13 12 12 11 10 10 12 16 17 17 19 14 14 13 14 14 14 14 17 17 16 16 16 14
4 5 4 5 3 3 4 4 4 1 4 3 3 3 2 1 2 10 1 13 13 12 9 9 12 13 13 13 12 10 11 12 16 17 16 17 13 13 13 13 15 13 13 17 16 16 15 14 16
4 5 5 5 2 2 3 3 4 6 1 2 2 4 1 1 5 5 10 14 13 11 10 12 14 15 14 13 13 13 12 12 14 15 14 15 13 13 12 11 13 13 9 15 16 15 12 17 18
5 3 4 4 1 2 3 2 5 5 4 1 0 2 2 2 2 8 13 14 13 10 8 9 11 13 13 12 13 12 12 12 13 13 11 13 12 12 12 11 11 12 9 14 15 12 13 16 17
4 3 4 2 2 2 0 4 4 3 3 2 3 3 1 2 4 9 12 12 11 12 10 9 9 10 11 11 11 11 11 10 10 11 13 12 12 12 11 10 10 9 12 16 15 15 14 15 16
6 4 4 4 1 1 4 5 4 4 4 4 7 4 1 1 4 9 9 8 9 9 9 8 9 9 8 9 9 10 9 9 9 10 12 10 10 11 11 9 10 10 10 14 13 13 13 13 14
5 5 4 1 3 1 4 4 1 4 4 2 1 4 3 3 9 8 8 9 8 6 6 8 7 8 7 7 8 9 9 10 9 11 10 8 9 10 9 6 9 9 9 14 13 12 11 12 13
3 5 3 7 6 3 3 4 1 0 5 2 5 4 3 10 13 9 7 5 6 6 7 7 7 6 6 6 6 8 8 9 9 9 9 8 5 7 7 5 7 8 9 13 11 10 10 11 10
5 4 9 5 5 5 6 3 7 4 2 2 2 2 4 9 13 14 12 12 9 12 11 8 8 8 7 5 6 6 6 6 6 6 7 5 6 5 5 5 7 7 9 8 9 9 8 6 5
2 5 6 4 3 5 6 2 2 6 3 6 8 6 7 8 11 13 12 12 13 11 10 9 8 7 8 6 5 3 3 4 4 7 6 5 4 4 4 3 3 3 5 3 6 5 3 5 5
5 2 4 4 4 5 6 6 3 4 4 2 4 4 7 11 13 14 13 12 12 13 12 10 9 8 8 6 5 5 5 4 4 5 7 6 4 5 5 4 4 4 3 5 4 3 4 4 4
3 3 3 4 5 5 7 2 2 5 5 3 4 5 10 12 11 8 8 8 11 12 10 9 9 8 7 7 6 6 6 5 6 6 7 6 6 6 5 5 4 4 4 4 4 3 3 3 3
3 4 4 3 2 3 3 1 1 1 4 2 4 5 6 9 9 4 7 10 11 13 15 12 10 9 9 8 8 6 6 7 6 6 7 9 6 6 6 6 6 5 5 5 5 6 5 4 4
5 5 2 3 1 2 0 4 6 2 4 1 5 2 5 8 6 13 14 13 13 11 14 16 11 11 10 11 8 6 6 6 7 7 9 10 9 9 8 6 6 6 5 6 4 3 2 3 3
6 6 4 1 2 2 3 8 2 4 1 3 4 5 6 6 10 9 8 10 10 10 13 13 11 11 12 10 9 7 7 6 7 7 8 10 10 10 8 7 6 5 6 5 4 4 4 3 3
7 4 3 1 1 1 4 6 2 1 5 5 6 5 5 6 7 9 8 10 9 11 11 12 13 16 15 12 9 9 8 7 7 7 7 10 11 11 9 7 6 7 6 6 6 4 3 3 3
6 5 2 3 2 1 3 9 7 5 3 7 7 7 7 7 9 6 8 9 9 9 10 11 11 13 13 10 8 7 6 7 7 7 7 10 9 12 10 7 7 7 6 6 6 6 5 3 4
7 5 5 2 1 1 3 5 10 6 4 8 7 7 8 8 5 6 5 6 6 7 10 12 13 13 10 9 9 9 9 8 7 6 10 12 11 12 12 8 7 8 9 10 9 6 6 6 6
5 5 3 2 3 2 2 7 8 6 3 4 6 6 7 7 7 7 6 5 2 3 6 7 11 10 11 9 9 7 8 8 8 7 8 11 12 12 12 12 10 11 8 10 11 10 3 4 9
1 7 5 4 2 3 3 7 5 2 3 6 7 4 5 6 6 7 8 7 6 5 3 5 6 6 9 9 3 2 1 1 4 6 7 9 12 13 14 13 12 11 11 10 12 12 13 8 6
5 5 6 7 4 3 3 4 4 4 4 7 8 8 7 7 6 5 7 8 8 7 5 4 1 4 4 6 7 9 10 10 9 8 6 7 11 12 13 13 13 13 10 12 11 11 11 10 9
3 5 7 4 5 4 2 4 7 4 5 5 7 7 7 6 6 7 7 7 7 8 8 6 7 5 1 4 5 6 8 5 2 2 7 7 8 11 11 12 12 13 10 12 13 12 14 11 9
10 8 9 5 3 1 1 5 6 1 4 2 2 4 4 6 6 6 4 6 7 8 10 10 10 9 7 4 0 3 4 3 2 2 4 5 5 5 9 10 11 11 10 12 12 14 15 14 13
4 6 3 2 3 5 3 3 7 1 1 4 5 4 4 5 7 9 12 11 11 11 10 8 11 12 10 8 7 5 3 3 4 4 3 3 3 3 7 6 7 7 10 11 11 11 12 14 13
7 6 7 8 5 2 2 6 5 1 2 4 3 5 6 8 7 9 8 9 10 11 12 11 12 11 9 8 8 6 6 3 3 3 3 4 4 4 5 6 6 7 6 5 7 7 9 11 11
6 5 5 9 3 4 4 5 4 1 6 5 5 5 7 7 7 7 7 8 9 9 10 9 10 10 11 9 7 6 5 5 4 4 4 4 5 4 6 6 7 9 9 8 8 7 8 10 11
4 8 5 3 5 4 4 4 6 8 10 7 6 6 6 5 7 7 7 8 8 7 5 7 7 8 7 9 9 7 7 7 5 4 5 5 5 4 6 7 7 8 9 11 10 9 9 10 10
3 3 4 5 4 7 3 8 6 13 9 10 7 6 7 6 5 5 5 6 6 6 8 9 11 11 11 10 8 7 8 8 7 7 7 7 6 6 6 7 7 8 8 9 9 12 12 13 13
1 6 6 7 5 1 3 6 3 11 9 8 8 6 6 6 6 5 6 6 6 7 8 8 9 11 10 9 10 10 9 8 7 6 5 5 7 7 7 7 7 8 8 8 9 11 11 14 14
Wind_Direction
24 36 55 43 56 66 195 234 303 138 144 110 100 135 180 87 162 185 21 170 148 150 152 153 145 130 117 105 97 97 103 108 116 113 104 91 87 90 96 91 88 87 96 92 87 89 89 91 93
35 23 45 77 83 68 262 237 194 193 127 130 96 81 53 101 91 111 133 186 156 152 149 156 133 128 123 112 103 101 97 95 114 106 98 97 93 98 102 98 91 86 100 94 89 92 93 91 85
74 28 74 86 99 169 208 212 150 79 145 69 97 61 129 144 108 159 239 154 151 147 151 140 132 130 128 124 120 117 108 97 105 103 99 97 100 105 109 107 92 85 94 98 100 97 104 101 90
53 17 44 81 167 226 202 166 156 122 292 63 120 82 333 263 160 185 142 150 150 151 148 142 142 138 139 135 131 125 117 113 107 108 108 110 108 110 112 103 104 92 95 103 99 111 113 100 96
38 60 66 83 275 284 248 162 154 132 132 115 244 164 49 31 73 136 148 152 153 150 144 142 139 141 140 141 136 128 123 117 110 112 113 110 115 116 114 107 103 100 109 107 114 112 103 103 100
55 97 71 160 240 308 42 180 153 117 131 150 88 110 151 328 138 150 150 154 155 153 150 150 141 143 145 142 134 127 126 121 126 127 119 120 122 120 118 120 111 104 96 107 102 98 91 93 101
120 92 150 154 161 40 172 165 160 143 134 196 154 126 240 158 150 146 140 138 147 149 150 151 153 152 147 141 136 129 128 126 126 122 120 125 125 125 125 128 114 117 123 110 105 103 102 101 107
111 96 109 187 153 221 171 156 147 152 207 77 192 169 153 171 139 125 131 139 144 148 152 156 153 155 158 147 142 134 132 127 119 113 115 116 110 105 111 103 122 121 126 108 113 110 111 113 114
140 69 145 184 157 195 138 160 323 345 117 218 188 148 120 129 130 125 134 141 150 166 167 166 164 164 161 153 149 134 131 128 117 119 118 107 122 121 120 124 125 129 117 113 119 115 120 107 113
89 104 200 179 186 174 173 193 168 132 109 243 251 126 110 139 152 158 171 178 186 182 182 181 176 176 167 163 156 154 146 145 140 142 137 133 131 129 131 118 117 130 138 129 130 119 116 116 127
152 163 167 180 171 133 155 151 171 135 209 217 203 182 158 153 172 172 178 187 189 183 185 184 181 178 178 175 165 162 158 151 149 150 146 141 135 139 134 127 127 124 130 133 106 136 138 130 135
98 80 143 157 122 123 157 123 182 207 197 66 267 176 161 168 184 186 186 180 178 179 189 193 190 181 178 177 182 177 170 167 166 169 158 155 154 158 158 157 156 146 145 139 143 151 140 140 142
95 141 92 87 94 104 130 134 231 249 256 237 77 168 181 183 191 193 190 183 179 191 190 186 184 193 186 177 178 180 189 187 178 174 176 171 171 173 169 172 170 165 159 157 157 160 157 149 151
114 101 102 59 72 69 139 135 116 253 356 186 163 188 207 201 185 159 185 192 194 195 200 187 183 190 195 189 181 183 186 188 186 187 189 187 181 181 185 179 182 180 179 173 177 180 176 177 183
115 88 80 45 46 55 329 299 232 287 339 290 236 183 222 218 191 208 204 204 196 203 199 201 187 185 197 202 184 183 183 181 185 199 196 193 192 191 188 189 190 192 188 183 182 183 190 186 189
82 57 113 20 143 342 89 260 295 22 142 308 320 276 260 254 230 230 216 210 196 191 195 196 195 193 198 199 197 190 185 188 190 186 193 199 201 194 191 198 201 179 180 182 172 172 186 214 223
17 168 166 309 5 118 107 273 307 321 41 312 315 308 280 275 266 257 238 231 211 202 195 195 194 199 199 202 200 195 196 195 197 190 188 197 201 199 198 201 198 178 179 185 180 193 181 186 199
178 145 158 190 234 52 109 265 289 282 288 276 299 303 290 289 270 266 252 232 222 205 197 199 196 200 197 200 201 204 203 209 204 194 193 189 196 200 204 209 197 183 184 192 192 191 187 193 187
127 117 135 159 38 206 213 267 280 281 288 304 308 303 303 298 304 306 303 265 225 209 208 202 198 200 186 192 196 209 209 206 210 198 193 194 195 198 201 209 197 188 196 206 200 187 184 201 167
114 118 136 76 51 143 8 281 270 325 312 333 314 324 322 325 340 351 1 9 223 219 215 208 214 195 197 203 210 212 210 216 213 206 201 200 199 197 201 205 205 202 206 206 197 194 184 204 179
106 145 173 146 114 64 330 313 338 9 22 21 26 14 7 356 15 14 23 28 26 27 294 224 217 199 202 199 149 97 74 45 195 213 212 208 203 203 204 208 207 203 211 214 205 200 201 208 205
151 167 124 121 100 190 2 270 313 326 40 34 20 21 7 10 18 30 21 28 19 13 21 42 250 217 205 190 188 205 223 228 227 227 218 211 207 210 210 211 210 209 208 213 211 210 210 215 203
176 117 114 97 96 96 335 88 269 315 51 18 20 18 21 21 29 43 39 32 20 25 29 35 55 54 15 204 213 202 224 239 231 234 233 220 208 215 214 215 213 214 212 216 210 209 215 212 211
152 82 55 52 87 67 200 137 280 216 165 115 39 39 31 30 44 46 38 36 32 19 33 39 50 40 31 49 39 219 243 258 252 240 240 238 237 221 224 220 222 222 218 217 217 215 210 214 221
86 96 46 11 0 215 3 106 237 235 103 150 137 83 39 36 49 42 36 34 36 32 25 33 43 38 23 32 32 16 339 303 272 264 256 249 246 253 246 237 240 241 234 225 222 217 213 212 219
183 163 157 189 187 226 66 223 243 215 91 88 81 109 71 55 44 43 30 36 37 35 33 41 45 47 32 30 22 16 17 0 333 323 304 284 272 263 261 255 252 262 254 248 235 230 219 223 223
184 194 144 104 27 72 208 278 311 102 120 129 128 97 78 73 60 54 34 39 41 42 37 35 42 40 34 32 26 27 23 27 360 342 315 296 284 278 281 270 269 265 261 251 243 238 229 223 227
158 160 82 10 131 225 263 258 217 181 177 173 143 113 92 77 62 52 38 35 40 37 35 38 37 41 22 25 28 18 13 16 11 12 356 332 304 297 284 277 265 263 260 262 258 255 250 236 234
127 181 61 119 138 161 157 251 213 178 165 160 158 135 124 106 93 79 56 39 39 40 35 37 33 30 25 21 11 13 8 8 13 12 2 349 324 313 296 288 283 272 266 255 252 254 259 256 252
169 181 162 140 221 265 142 269 163 148 163 156 142 130 123 110 103 86 71 54 43 34 29 30 26 26 13 6 7 6 0 1 5 4 343 332 328 325 311 302 289 282 274 267 254 259 257 260 260